Weather History for Honolulu, HI

Change the Weather History Date:

Thursday, February 14, 2013

  Actual Average Record
Temperature  
Mean Temperature 74 °F 73 °F  
Max Temperature 80 °F 80 °F 86 °F (1978)
Min Temperature 68 °F 66 °F 57 °F (1993)
Degree Days  
Heating Degree Days 0 0  
Month to date heating degree days 0 0  
Since 1 July heating degree days 0 0  
Cooling Degree Days 9 8  
Month to date cooling degree days 135 112  
Year to date cooling degree days 354 366  
Growing Degree Days 23 (Base 50)    
Moisture  
Dew Point 57 °F    
Average Humidity 56    
Maximum Humidity 66    
Minimum Humidity 45    
Precipitation  
Precipitation 0.00 in 0.07 in 2.85 in (1994)
Month to date precipitation T 0.91  
Year to date precipitation 2.42 3.22  
Snow  
Snow 0.00 in - - ()
Month to date snowfall 0.0  
Since 1 July snowfall 0.0  
Snow Depth 0.00 in    
Sea Level Pressure  
Sea Level Pressure 30.06 in    
Wind  
Wind Speed 10 mph (NE)    
Max Wind Speed 18 mph    
Max Gust Speed 23 mph    
Visibility 10 miles    
Events      
T = Trace of Precipitation, MM = Missing Value Source: NWS Daily Summary

Daily Weather History Graph

Daily Weather History Graph

Search for Another Location

Airport:

Trip Planner

Search our weather history database for the weather conditions in past years. The results will help you decide how hot, cold, wet, or windy it might be!

Date:

Astronomy

Feb. 14, 2013 Rise Set
Actual Time 7:02 AM HST 6:29 PM HST
Civil Twilight 6:39 AM HST 6:52 PM HST
Nautical Twilight 6:13 AM HST 7:18 PM HST
Astronomical Twilight 5:47 AM HST 7:44 PM HST
Moon 9:54 AM HST (2/14) 10:56 PM HST (2/14)
Length of Visible Light 12h 12m
Length of Day
11h 26m
Waxing Crescent, 23% of the Moon is Illuminated
Feb 14
Waxing Crescent
Feb 17
First Quarter
Feb 25
Full
Mar 4
Last Quarter
Mar 11
New

Hourly Weather History & Observations

Time (HST) Temp. Dew Point Humidity Pressure Visibility Wind Dir Wind Speed Gust Speed Precip Events Conditions
12:53 AM 70.0 °F 57.0 °F 63% 30.09 in 10.0 mi North 4.6 mph - N/A   Mostly Cloudy
1:53 AM 70.0 °F 57.9 °F 65% 30.08 in 10.0 mi North 3.5 mph - N/A   Mostly Cloudy
2:53 AM 70.0 °F 55.0 °F 59% 30.06 in 10.0 mi NE 8.1 mph - N/A   Mostly Cloudy
3:53 AM 68.0 °F 54.0 °F 61% 30.05 in 10.0 mi NNE 5.8 mph - N/A   Mostly Cloudy
4:53 AM 68.0 °F 54.0 °F 61% 30.06 in 10.0 mi NNE 4.6 mph - N/A   Mostly Cloudy
5:53 AM 70.0 °F 55.9 °F 61% 30.06 in 10.0 mi ENE 8.1 mph - N/A   Mostly Cloudy
6:53 AM 70.0 °F 55.9 °F 61% 30.07 in 10.0 mi NE 6.9 mph - N/A   Mostly Cloudy
7:53 AM 71.1 °F 57.0 °F 61% 30.09 in 10.0 mi ENE 9.2 mph - N/A   Scattered Clouds
8:53 AM 73.0 °F 55.9 °F 55% 30.11 in 10.0 mi ENE 9.2 mph - N/A   Scattered Clouds
9:53 AM 75.0 °F 55.9 °F 51% 30.12 in 10.0 mi ENE 11.5 mph - N/A   Scattered Clouds
10:53 AM 75.9 °F 55.0 °F 48% 30.09 in 10.0 mi ENE 13.8 mph 20.7 mph N/A   Scattered Clouds
11:53 AM 77.0 °F 55.9 °F 48% 30.08 in 10.0 mi ENE 9.2 mph - N/A   Mostly Cloudy
12:53 PM 78.1 °F 55.9 °F 46% 30.06 in 10.0 mi NE 13.8 mph 19.6 mph N/A   Scattered Clouds
1:53 PM 78.1 °F 55.9 °F 46% 30.03 in 10.0 mi NNE 11.5 mph - N/A   Mostly Cloudy
2:53 PM 77.0 °F 57.0 °F 50% 30.02 in 10.0 mi NNE 15.0 mph 19.6 mph N/A   Mostly Cloudy
3:53 PM 77.0 °F 57.0 °F 50% 30.01 in 10.0 mi NNE 10.4 mph 17.3 mph N/A   Mostly Cloudy
4:53 PM 75.9 °F 57.0 °F 52% 30.02 in 10.0 mi NNE 11.5 mph - N/A   Mostly Cloudy
5:53 PM 73.9 °F 57.0 °F 55% 30.03 in 10.0 mi NNE 13.8 mph - N/A   Scattered Clouds
6:53 PM 72.0 °F 57.9 °F 61% 30.04 in 10.0 mi ENE 15.0 mph 19.6 mph N/A   Mostly Cloudy
7:53 PM 72.0 °F 57.9 °F 61% 30.04 in 10.0 mi East 11.5 mph - N/A   Scattered Clouds
8:53 PM 72.0 °F 59.0 °F 64% 30.06 in 10.0 mi NE 10.4 mph - N/A   Mostly Cloudy
9:53 PM 72.0 °F 59.0 °F 64% 30.07 in 10.0 mi ENE 8.1 mph - N/A   Mostly Cloudy
10:53 PM 71.1 °F 59.0 °F 66% 30.08 in 10.0 mi NE 12.7 mph - N/A   Mostly Cloudy
11:53 PM 71.1 °F 57.9 °F 63% 30.07 in 10.0 mi NE 12.7 mph - N/A   Scattered Clouds